Regional Weather Roundup
Issued by NWS

Home | Current Version | Previous Version | Graphics & Text | Print | Product List | Glossary On
Versions: 1 2 3 4 5 6 7 8 9 10 11 12 13 14 15 16 17 18 19 20 21 22 23 24 25 26 27 28 29 30 31 32 33 34 35 36 37 38 39 40 41 42 43 44 45 46 47 48 49 50
000
ASUS43 KMKX 300120
RWRWI

WISCONSIN REGIONAL WEATHER ROUNDUP
NATIONAL WEATHER SERVICE MILWAUKEE/SULLIVAN WI
800 PM CDT SUN MAR 29 2015

NOTE: "FAIR" INDICATES FEW OR NO CLOUDS BELOW 12,000 FEET WITH NO
SIGNIFICANT WEATHER AND/OR OBSTRUCTIONS TO VISIBILITY.

WIZ001-002-006>008-014>016-023>028-300200-
NORTHWEST WISCONSIN

CITY           SKY/WX    TMP DP  RH WIND       PRES   REMARKS
SUPERIOR ARPT  CLOUDY    42  27  55 NW5       29.81R
ASHLAND        MOCLDY    40  30  67 NW6       29.78R
HAYWARD        PTCLDY    42  27  55 NW3       29.78R
SIREN          CLEAR     45  24  44 NW15G21   29.84R
CUMBERLAND     PTCLDY    41  27  56 NW12G20   29.81R
RICE LAKE      CLEAR     44  26  50 W14G20    29.82R
CHETEK         CLEAR     42  28  58 W6        29.81R
LADYSMITH      PTCLDY    40  31  70 NW13      29.78R WCI  32
EAU CLAIRE     CLEAR     46  25  43 NW16G26   29.81R
MENOMONIE      CLEAR     47  25  42 NW23      29.83R
NEW RICHMOND   CLEAR     44  27  51 NW9       29.86R
OSCEOLA        CLEAR     46  28  49 NW9       29.89R
$$

WIZ003>005-009-010-017-018-300200-
NORTH CENTRAL WISCONSIN

CITY           SKY/WX    TMP DP  RH WIND       PRES   REMARKS
MANITOWISH WTR CLOUDY    35  33  92 NW18G25   29.70R WCI  24
ARBOR VITAE    CLOUDY    37  33  87 NW10G21   29.70R WCI  29
WOODRUFF       CLOUDY    37  33  87 NW10G21   29.70R WCI  29
RHINELANDER    CLOUDY    36  31  82 W14G21    29.70R WCI  27
EAGLE RIVER    LGT RAIN  35  31  84 NW12G23   29.67R WCI  27
LAND O LAKES   CLOUDY    35  32  88 NW13G20   29.67R WCI  27
PHILLIPS       CLOUDY    37  31  80 NW9       29.74R WCI  30
TOMAHAWK       CLOUDY    36  32  85 W8        29.73R WCI  29
MEDFORD        PTCLDY    36  32  83 NW7       29.75R WCI  31
MERRILL        CLOUDY    38  32  79 NW12G18   29.74R WCI  30
$$

WIZ029-030-035-036-043>047-300200-
CENTRAL WISCONSIN

CITY           SKY/WX    TMP DP  RH WIND       PRES   REMARKS
WAUSAU         CLOUDY    39  31  72 NW12G23   29.73R WCI  32
MOSINEE        CLOUDY    37  32  81 NW13G21   29.75R WCI  29
MARSHFIELD     PTCLDY    38  31  76 NW10      29.76R WCI  31
STEVENS POINT  CLOUDY    38  29  69 NW9       29.77R WCI  32
WAUPACA        CLOUDY    43  33  67 W15G23    29.75R
WAUTOMA        CLOUDY    42  33  70 NW15G28   29.79R
WISC RAPIDS    PTCLDY    39  30  70 NW8G16    29.79R WCI  33
CAMP DOUGLAS   CLEAR     36  36 100 W3        29.79R
$$

WIZ011>013-019>022-031-037>040-048>050-300200-
NORTHEAST WISCONSIN

CITY           SKY/WX    TMP DP  RH WIND       PRES   REMARKS
ANTIGO         CLOUDY    35  32  88 NW17G24   29.70R WCI  25
SHAWANO        DRIZZLE   41  34  76 W8G21     29.71R
OCONTO         CLOUDY    38  33  82 W15G22    29.66R WCI  30
STURGEON BAY   CLOUDY    37  30  75 W13G21    29.66R WCI  29
GREEN BAY      CLOUDY    40  33  76 W18G28    29.69R WCI  31
MANITOWOC      CLOUDY    41  34  76 NW18G26   29.69R
APPLETON       MOCLDY    39  32  75 W18G25    29.72R WCI  30
CLINTONVILLE   CLOUDY    39  32  75 W14G20    29.71R WCI  31
OSHKOSH        CLOUDY    41  33  73 W13G22    29.74R
$$

WIZ032>034-041-042-053>061-300200-
SOUTHWEST WISCONSIN

CITY           SKY/WX    TMP DP  RH WIND       PRES   REMARKS
LA CROSSE      CLEAR     50  28  42 NW18G28   29.82R
SPARTA         PTCLDY    37  33  85 CALM      29.82R
VIROQUA        CLEAR     43  31  64 W12       29.82R
BOSCOBEL       CLEAR     48  29  47 W8        29.85R
PRAIRIE DU CHI CLEAR     44  30  57 W13       29.86R
PLATTEVILLE    CLEAR     43  34  69 W14       29.85R
$$

WIZ056-057-062-063-064-067-068-300200-
SOUTH CENTRAL WISCONSIN

CITY           SKY/WX    TMP DP  RH WIND       PRES   REMARKS
REEDSBURG      PTCLDY    40  35  83 CALM      29.80R
BARABOO/DELLS  PTCLDY    39  33  78 W3        29.80R
LONE ROCK      MOCLDY    42  34  73 W7        29.82R
MINERAL POINT  CLEAR     43  34  70 W12       29.82R
MADISON        MOCLDY    41  35  79 W3        29.81R
MIDDLETON      MOCLDY    41  34  75 W6        29.82R
WATERTOWN      CLOUDY    42  35  78 NW10      29.80R
MONROE         CLEAR     39  34  81 W12       29.83R WCI  32
JANESVILLE     PTCLDY    43  34  70 W8        29.83R
$$

WIZ051-052-058>065-066-070>072-300200-
SOUTHEAST WISCONSIN

CITY           SKY/WX    TMP DP  RH WIND       PRES   REMARKS
MILWAUKEE      MOCLDY    45  32  60 W21G29    29.77R
WAUKESHA       CLOUDY    39  34  81 W17G29    29.78R WCI  30
MILWAUKEE/TIMM CLOUDY    41  36  81 W17G28    29.78R
RACINE         CLOUDY    45  32  60 NW14G26   29.79R
BURLINGTON     MOCLDY    41  34  77 W10G23    29.80R
KENOSHA        CLOUDY    45  34  65 NW22G31   29.79R
FOND DU LAC    CLOUDY    41  33  73 W15       29.75R
SHEBOYGAN      CLOUDY    41  33  73 W17G28    29.71R
WEST BEND      CLOUDY    41  32  70 W17G25    29.75R
JUNEAU         CLOUDY    40  35  84 W12G20    29.79R WCI  33
$$

LSZ147-162-300200-
LAKE SUPERIOR

STATION/POSITION TIME  TEMP    WIND        PRES    WAVE
                       AIR SEA DIR/SP/G            HT/PER
                 (UTC) (F)     (DEG/KT/KT) (MB)    (FT/S)
DEVILS ISLAND    0100   40     290/ 20/ 21 1007.9R
PORT WING        0000   38     280/ 10/ 12 1008.1
SAXON HARBOR     0000   41     290/ 12/ 17 1006.8R
$$

LMZ867-665-643>646-300200-
LAKE MICHIGAN

STATION/POSITION TIME  TEMP    WIND        PRES    WAVE
                       AIR SEA DIR/SP/G            HT/PER
                 (UTC) (F)     (DEG/KT/KT) (MB)    (FT/S)
NORTHPORT PIER   0020   36     270/  7/ 19 1001.0R
SISTER BAY       0017   35     280/ 15/ 17   N/A
KEWAUNEE LAKESHO 0000   40     290/ 14/ 20 1001.5R
SHEBOYGAN LAKESH 0100   42     290/ 19/ 23 1007.1R
PORT WASHINGTON  0100   43     290/  7/ 25 1008.1R
MILWAUKEE LAKESH 0100   44     300/ 13/ 18   N/A
KENOSHA   LAKESH 0100   46     300/ 19/ 28 1008.5R
$$

TC  - TEMPERATURE IN CELSIUS
VSB - VISIBILITY IN STATUTE MILES
WCI - WIND CHILL INDEX
HX  - HEAT INDEX



USA.gov is the U.S. government's official web portal to all federal, state and local government web resources and services.